Temperature
9 9 9 9 9 9 8 8 8 7 7 7 7 7 6 6 6 5 5 4 4 3 3 2 2 2 1 1 1 1 0 0 -0 -1 -1 -1 -1 -1
9 9 9 9 9 8 8 8 8 7 7 7 7 6 6 5 5 4 4 3 3 3 2 2 1 1 1 0 0 -0 -1 -1 -1 -2 -2 -2 -2 -2
9 9 9 9 8 8 8 8 7 7 6 6 6 5 5 5 4 4 3 3 2 2 1 1 0 0 -0 -1 -1 -1 -2 -2 -2 -2 -2 -2 -3 -2
9 9 9 8 8 8 8 7 7 7 6 6 6 5 4 4 3 3 3 2 2 1 0 0 -0 -1 -1 -1 -2 -2 -3 -3 -3 -3 -3 -3 -3 -3
9 9 8 8 8 8 7 7 7 6 6 5 5 4 4 3 2 2 2 1 1 0 -0 -1 -1 -2 -2 -2 -3 -3 -3 -4 -4 -4 -4 -4 -4 -4
9 8 8 8 8 7 7 7 6 6 5 5 4 3 3 2 2 1 1 1 0 -0 -1 -2 -2 -2 -3 -3 -4 -4 -4 -4 -5 -5 -5 -5 -5 -5
8 8 8 8 7 7 7 6 6 5 5 4 3 2 2 1 1 0 -0 -1 -1 -1 -2 -2 -3 -3 -3 -4 -4 -4 -5 -5 -5 -5 -6 -6 -6 -6
8 8 8 7 7 7 6 6 5 4 4 3 2 2 1 1 -0 -1 -1 -2 -2 -2 -3 -3 -3 -4 -4 -4 -5 -5 -5 -6 -6 -6 -6 -6 -6 -6
8 7 7 7 7 6 6 5 4 4 3 2 1 1 0 -0 -1 -1 -2 -2 -3 -3 -4 -4 -4 -4 -5 -5 -5 -6 -6 -6 -6 -7 -7 -7 -7 -7
7 7 7 6 6 5 5 4 4 3 2 2 1 0 -1 -1 -2 -2 -3 -3 -3 -4 -4 -5 -5 -5 -5 -5 -6 -6 -7 -7 -7 -7 -7 -7 -7 -7
7 7 6 6 5 5 4 4 3 2 2 1 0 -1 -1 -2 -2 -3 -3 -4 -4 -4 -5 -6 -6 -6 -6 -6 -6 -7 -7 -7 -7 -8 -7 -7 -7 -7
6 6 5 5 4 4 3 3 2 2 1 0 -1 -1 -2 -2 -3 -4 -4 -5 -5 -6 -6 -7 -7 -8 -8 -7 -7 -7 -7 -8 -8 -8 -8 -8 -8 -8
6 5 5 4 4 3 3 2 1 1 -0 -1 -1 -2 -2 -3 -4 -4 -5 -5 -6 -7 -7 -8 -8 -8 -9 -9 -8 -7 -8 -8 -8 -8 -8 -8 -8 -8
5 4 4 3 3 2 2 1 0 -0 -1 -2 -2 -3 -3 -4 -4 -5 -5 -6 -7 -7 -7 -8 -8 -9 -9 -9 -9 -8 -8 -8 -8 -8 -8 -8 -8 -8
4 4 3 3 2 1 1 0 -0 -1 -2 -2 -3 -4 -4 -5 -5 -6 -6 -6 -7 -7 -8 -8 -9 -9 -9 -9 -9 -9 -9 -8 -8 -9 -8 -8 -8 -8
4 3 2 2 1 1 0 -1 -1 -2 -3 -3 -4 -5 -5 -6 -6 -6 -7 -7 -7 -8 -8 -9 -9 -9 -9 -9 -9 -9 -9 -10 -9 -9 -9 -8 -8 -8
3 2 2 1 1 -0 -1 -1 -2 -3 -3 -4 -5 -5 -6 -6 -7 -7 -8 -8 -9 -9 -9 -9 -9 -9 -9 -9 -9 -9 -9 -9 -9 -9 -9 -8 -7 -8
2 2 1 0 -0 -1 -2 -2 -3 -4 -4 -5 -6 -6 -7 -7 -8 -8 -8 -9 -9 -9 -10 -10 -10 -9 -9 -9 -9 -10 -10 -10 -9 -9 -9 -9 -8 -7
2 1 0 -0 -1 -2 -2 -3 -4 -4 -5 -6 -6 -7 -7 -8 -8 -9 -9 -9 -10 -10 -10 -10 -11 -11 -11 -11 -9 -9 -10 -10 -10 -9 -9 -9 -9 -8
1 0 -0 -1 -2 -2 -3 -4 -4 -5 -6 -6 -7 -7 -8 -8 -9 -9 -10 -10 -10 -10 -10 -10 -11 -11 -11 -11 -11 -9 -10 -10 -10 -10 -9 -9 -8 -7
-0 -1 -1 -2 -2 -3 -4 -4 -5 -6 -6 -7 -7 -8 -8 -9 -9 -10 -10 -10 -11 -11 -11 -11 -11 -11 -11 -11 -10 -10 -9 -9 -10 -10 -9 -9 -9 -8
-1 -1 -2 -3 -3 -4 -4 -5 -6 -6 -7 -7 -8 -8 -9 -9 -10 -10 -10 -11 -11 -11 -11 -11 -11 -11 -11 -11 -11 -10 -9 -9 -9 -9 -9 -9 -10 -9
-2 -2 -3 -3 -4 -4 -5 -6 -6 -7 -7 -8 -8 -9 -9 -9 -10 -10 -11 -11 -11 -11 -11 -11 -11 -11 -11 -11 -11 -10 -10 -9 -9 -8 -8 -8 -9 -9
Wind_Speed
9 8 6 5 4 4 4 4 5 3 4 4 3 3 6 7 7 7 7 9 11 12 14 15 16 17 18 19 20 20 21 22 22 22 23 24 24 24
7 8 7 5 5 4 4 3 4 5 4 3 3 2 3 4 6 7 8 10 12 13 15 16 17 18 18 19 20 21 22 22 22 22 23 24 24 23
8 9 8 6 5 4 4 4 4 4 4 3 1 0 1 2 3 5 7 9 10 13 15 16 17 18 19 20 21 21 22 22 22 22 22 23 23 23
10 9 8 6 6 5 5 5 4 4 4 4 2 0 2 2 1 2 5 7 9 12 15 16 17 18 19 20 21 21 21 21 21 21 22 22 23 23
10 10 9 8 7 5 5 5 4 3 2 2 2 1 1 1 1 2 4 5 9 12 14 15 17 18 19 20 20 20 20 20 20 20 21 22 22 22
9 9 8 9 8 7 5 5 3 3 2 1 1 1 2 1 1 3 4 4 5 9 11 13 15 17 18 20 20 20 19 19 20 21 21 21 21 21
7 7 7 7 7 6 5 5 4 3 2 2 2 2 2 2 2 2 4 4 5 4 4 6 9 9 13 16 17 18 19 19 20 21 21 21 21 21
8 7 6 6 6 6 6 6 6 5 4 3 2 2 3 2 2 2 3 4 5 3 4 6 5 6 8 11 16 19 19 20 20 20 20 21 20 21
8 7 5 5 6 4 5 5 4 4 4 4 3 3 3 2 2 3 3 4 5 5 4 5 4 5 8 14 18 19 19 19 20 20 20 20 20 21
7 7 7 6 5 5 4 3 2 1 1 1 2 2 1 1 1 2 3 4 4 4 3 5 4 5 8 11 15 17 18 19 20 20 20 20 20 20
6 7 7 6 7 7 5 4 2 0 1 1 2 2 3 4 4 2 3 3 5 4 2 3 4 6 5 5 10 15 18 20 20 21 21 21 21 20
6 6 8 8 8 7 5 5 3 1 1 2 2 3 3 3 4 2 1 3 4 4 2 3 4 5 5 4 4 10 13 17 20 21 21 21 22 14
6 5 5 8 8 7 6 4 3 3 2 2 1 2 2 2 3 3 2 2 3 4 4 4 3 3 4 6 5 5 7 8 12 14 18 21 21 17
7 5 5 9 8 7 6 5 5 5 3 2 2 1 2 2 2 3 4 5 5 6 7 5 4 5 6 8 7 5 6 8 8 7 9 17 18 20
7 10 10 11 9 6 7 7 5 3 3 2 1 1 1 2 2 3 4 6 7 8 9 8 5 5 5 7 7 7 8 7 5 6 7 8 8 9
8 10 12 11 8 7 6 4 3 2 2 1 1 1 2 2 2 2 3 3 4 4 7 9 8 5 5 7 8 9 8 6 7 9 8 8 8 9
9 6 5 4 4 3 3 3 3 2 2 2 2 2 2 2 3 3 3 3 3 4 5 4 8 9 7 7 7 7 7 7 7 9 10 10 9 8
9 6 5 4 4 3 3 2 2 2 2 1 1 2 2 3 3 3 3 3 4 4 4 4 5 5 5 5 6 6 5 6 8 9 8 10 11 9
7 6 5 4 4 3 3 2 1 1 1 1 2 2 2 3 3 4 4 4 4 4 4 4 4 5 7 8 6 5 6 9 9 9 8 8 10 12
5 5 5 4 3 3 2 2 1 1 1 1 1 2 2 2 3 4 4 4 5 5 5 5 4 4 5 6 6 7 13 9 8 10 10 9 8 12
5 4 4 4 3 3 2 2 1 1 1 1 1 2 2 2 3 4 4 8 6 4 6 5 6 10 5 4 6 7 7 13 14 10 10 9 8 6
5 4 4 4 3 2 2 1 1 1 1 1 1 2 2 2 3 4 4 4 5 5 5 5 6 5 3 5 8 9 9 10 15 17 13 10 7 6
5 4 3 3 3 2 2 1 1 0 1 1 1 2 2 3 3 3 4 4 5 5 6 6 5 4 4 5 6 7 10 10 9 9 8 15 17 16
Wind_Direction
191 192 190 191 186 187 178 168 173 211 244 237 221 215 199 200 210 216 241 266 277 285 292 297 300 301 302 304 305 306 305 304 304 303 302 303 302 302
186 189 192 189 183 181 183 183 178 185 225 237 218 214 188 197 222 230 251 275 281 287 293 297 299 301 303 304 306 306 305 304 304 304 304 305 305 304
186 189 193 179 175 183 182 186 191 181 218 254 244 158 161 217 243 246 263 273 281 289 294 298 300 302 303 305 306 307 307 307 307 306 306 307 307 307
188 185 187 178 181 185 185 192 199 195 198 233 250 251 232 232 239 261 276 282 283 291 296 299 301 303 305 307 307 307 308 308 308 308 307 307 307 307
183 183 183 177 188 188 186 195 199 198 185 201 239 253 273 277 279 289 294 290 291 294 297 300 302 305 308 309 309 309 310 309 309 310 309 308 308 307
176 177 177 181 188 185 185 188 180 184 186 202 251 283 288 307 318 290 297 291 296 298 299 304 307 310 311 310 311 312 312 312 311 312 312 311 310 309
164 163 167 170 173 173 172 173 169 174 176 205 243 267 276 310 284 278 290 298 296 288 306 307 309 305 306 310 311 310 312 314 315 315 314 313 311 310
162 157 155 154 160 167 169 175 174 176 189 198 223 243 261 267 281 301 304 318 306 301 312 302 301 297 298 302 308 313 315 316 317 318 317 314 312 311
157 155 154 155 154 158 160 162 172 175 183 189 207 232 249 258 277 287 292 292 283 293 314 295 294 296 303 307 312 315 318 321 321 320 317 315 314 313
146 149 148 148 151 148 143 144 151 159 174 161 189 231 268 282 262 275 283 298 292 300 314 292 301 304 309 304 308 317 324 326 325 323 320 318 317 316
134 136 141 142 144 141 142 147 138 89 57 63 25 357 342 336 344 5 347 336 315 304 300 297 306 314 299 288 308 325 327 326 325 324 324 324 322 321
129 130 132 138 144 145 145 146 155 175 109 68 30 3 1 350 347 1 327 316 313 302 327 333 307 326 313 296 312 318 317 320 324 324 325 325 325 322
131 128 128 131 134 135 126 128 136 110 100 89 51 21 14 7 355 347 330 290 292 285 305 323 304 309 290 302 302 298 305 312 317 317 322 325 326 326
133 131 129 128 123 120 114 101 93 88 86 77 53 17 352 333 324 328 324 312 293 284 297 306 293 302 304 303 303 305 313 310 309 308 313 324 326 325
122 124 120 118 111 106 99 95 88 87 88 75 32 337 321 318 330 333 329 325 313 304 306 305 293 295 295 298 303 306 314 312 308 318 316 314 311 313
110 111 107 105 97 96 95 88 81 87 84 82 5 340 344 347 341 336 326 326 320 309 308 309 305 295 294 290 293 298 305 304 314 317 316 310 306 306
116 102 97 100 94 88 88 84 78 66 52 38 26 357 344 342 336 335 329 326 317 312 318 318 316 304 285 283 290 293 299 305 310 318 321 317 309 304
115 116 115 115 114 111 105 86 68 65 55 38 14 353 343 337 334 334 333 326 318 314 316 318 329 332 329 307 278 292 302 308 312 313 314 315 313 312
108 116 118 119 115 111 108 103 83 59 61 42 10 350 342 337 333 330 330 328 322 317 317 320 332 338 332 327 305 303 315 315 313 312 310 308 305 306
107 119 120 118 115 112 109 97 78 55 39 18 355 339 334 329 327 327 326 325 323 323 322 325 325 323 314 307 299 300 309 309 312 313 313 307 295 297
114 113 114 115 113 110 106 99 92 71 29 3 338 331 328 327 321 319 321 329 331 323 322 316 304 321 308 300 306 306 304 315 319 314 312 312 314 309
116 115 113 113 113 113 109 102 88 52 10 346 324 324 326 326 318 317 320 321 319 315 311 306 308 318 323 316 315 313 315 318 325 327 324 318 318 317
116 114 112 113 112 114 113 108 96 359 333 324 319 322 326 322 314 312 313 312 313 316 318 318 321 319 310 306 307 312 315 321 326 330 324 329 332 323
Height
1512 1514 1515 1517 1518 1519 1520 1521 1522 1520 1519 1519 1518 1518 1517 1515 1514 1512 1511 1509 1507 1504 1502 1499 1496 1493 1490 1487 1483 1480 1477 1474 1471 1468 1466 1463 1460 1458
1507 1509 1511 1512 1514 1515 1516 1516 1517 1516 1515 1514 1514 1513 1512 1511 1509 1508 1506 1504 1501 1499 1497 1494 1491 1488 1484 1481 1477 1474 1471 1468 1465 1462 1459 1456 1453 1451
1502 1504 1506 1507 1509 1510 1511 1511 1511 1511 1510 1510 1510 1508 1507 1506 1504 1503 1501 1498 1496 1493 1491 1488 1485 1482 1478 1475 1471 1468 1464 1461 1458 1455 1452 1449 1447 1444
1496 1499 1501 1503 1504 1505 1506 1506 1506 1506 1506 1504 1504 1503 1502 1501 1499 1497 1495 1493 1490 1488 1485 1482 1479 1476 1473 1469 1465 1462 1458 1455 1452 1449 1446 1443 1440 1438
1491 1493 1496 1498 1499 1500 1501 1501 1501 1501 1501 1500 1498 1497 1496 1495 1493 1492 1490 1488 1485 1482 1479 1476 1473 1470 1467 1463 1459 1456 1452 1449 1446 1443 1439 1436 1433 1431
1487 1489 1491 1493 1494 1495 1496 1496 1496 1496 1495 1494 1493 1492 1491 1489 1488 1486 1483 1481 1479 1476 1474 1471 1467 1464 1461 1457 1454 1450 1447 1443 1440 1437 1433 1430 1427 1424
1482 1484 1487 1488 1490 1491 1491 1491 1491 1491 1490 1489 1488 1487 1486 1484 1483 1480 1478 1475 1472 1470 1467 1464 1461 1458 1455 1451 1448 1445 1441 1438 1435 1431 1427 1424 1421 1418
1478 1480 1482 1484 1485 1486 1486 1487 1487 1486 1485 1485 1484 1482 1481 1480 1478 1476 1473 1470 1466 1465 1461 1458 1456 1452 1449 1445 1442 1439 1436 1433 1429 1425 1422 1418 1415 1412
1473 1476 1478 1479 1481 1482 1482 1482 1482 1481 1481 1481 1480 1478 1477 1476 1474 1472 1469 1466 1463 1459 1455 1451 1449 1446 1443 1440 1437 1434 1431 1428 1424 1420 1416 1413 1410 1407
1470 1472 1474 1475 1476 1477 1477 1477 1477 1477 1477 1476 1476 1475 1473 1472 1470 1468 1465 1461 1458 1455 1452 1447 1443 1440 1437 1435 1432 1429 1426 1423 1419 1415 1412 1409 1405 1402
1467 1468 1470 1472 1472 1473 1473 1473 1474 1473 1473 1472 1472 1471 1469 1467 1466 1463 1460 1456 1452 1450 1447 1444 1439 1435 1431 1429 1427 1424 1421 1418 1414 1411 1407 1404 1401 1397
1463 1465 1467 1468 1469 1469 1470 1470 1469 1469 1469 1468 1467 1466 1465 1463 1461 1459 1456 1453 1449 1446 1443 1440 1436 1432 1426 1424 1422 1420 1417 1413 1410 1406 1403 1400 1396 1393
1460 1462 1463 1465 1465 1466 1466 1466 1466 1466 1465 1464 1463 1462 1461 1459 1457 1455 1453 1450 1447 1444 1442 1438 1434 1431 1428 1422 1418 1416 1413 1409 1405 1402 1399 1395 1392 1390
1457 1459 1460 1462 1462 1463 1463 1463 1463 1462 1461 1460 1459 1458 1457 1455 1453 1451 1449 1447 1444 1442 1439 1436 1432 1428 1424 1419 1415 1411 1409 1406 1402 1398 1395 1392 1389 1386
1455 1457 1458 1459 1459 1460 1460 1460 1459 1459 1458 1457 1456 1455 1454 1452 1450 1448 1445 1443 1441 1438 1436 1432 1429 1426 1423 1418 1413 1409 1405 1402 1399 1395 1391 1388 1384 1381
1452 1454 1455 1456 1457 1457 1457 1457 1456 1456 1455 1454 1453 1452 1450 1449 1446 1444 1442 1439 1436 1434 1432 1430 1426 1423 1419 1415 1411 1407 1404 1400 1396 1392 1388 1384 1381 1378
1450 1451 1452 1453 1454 1454 1454 1454 1453 1453 1452 1451 1450 1449 1447 1446 1444 1441 1439 1436 1434 1431 1428 1426 1423 1420 1416 1413 1408 1405 1401 1397 1394 1389 1384 1380 1377 1374
1448 1449 1450 1451 1451 1451 1451 1451 1451 1450 1450 1449 1448 1446 1445 1443 1441 1439 1437 1434 1432 1429 1426 1423 1419 1415 1412 1409 1407 1403 1399 1395 1391 1387 1383 1377 1373 1370
1446 1447 1448 1448 1449 1449 1449 1449 1449 1448 1447 1447 1445 1444 1442 1441 1439 1437 1435 1432 1430 1427 1425 1422 1418 1415 1411 1406 1404 1402 1398 1392 1388 1384 1380 1376 1371 1367
1444 1445 1446 1447 1447 1447 1447 1447 1447 1446 1445 1444 1443 1442 1440 1438 1437 1435 1433 1431 1428 1425 1423 1420 1418 1415 1412 1408 1403 1399 1397 1392 1386 1381 1377 1373 1369 1366
1442 1443 1444 1445 1445 1445 1445 1445 1444 1444 1443 1442 1441 1439 1438 1437 1435 1433 1431 1429 1427 1424 1421 1419 1417 1414 1411 1407 1403 1398 1394 1391 1387 1381 1376 1371 1366 1361
1440 1442 1442 1443 1443 1443 1443 1443 1442 1442 1441 1440 1439 1438 1436 1435 1433 1431 1430 1428 1425 1423 1420 1418 1415 1412 1409 1406 1401 1397 1392 1389 1385 1382 1377 1372 1368 1362
1439 1440 1441 1441 1441 1441 1441 1441 1440 1439 1439 1438 1437 1435 1434 1433 1431 1430 1428 1426 1424 1421 1419 1416 1413 1411 1408 1405 1401 1397 1392 1388 1383 1379 1376 1372 1368 1364